Hauptseite
METAR-TAF:

METAR-TAF

Flughäfen :

Glücksburg, Deutschland

Meierwik

Breite: 54-50N, Länge: 009-30E, Höhe: 27 m

Beobachtung

Neuester Wetterbericht von vor 33 Minuten, um 14:20 UTC
Wind 9 kt aus Südwest
Temperatur 7°C
Luftfeuchtigkeit 81%
Luftdruck 1006 hPa
Sichtweite 10 km oder mehr
Leicht bewölkt in der Höhe von 2000 ft
Aufgelockert bewölkt in der Höhe von 12000 ft

METAR: ETGG 241420Z 22009KT 9999 FEW020 SCT120 07/04 Q1006 BLU+

Zeit: 15:53 (14:53 UTC)


TAF: fehlend

Wetterbeobachtungen und Prognosen von mehr als 4000 Flughäfen (METAR und TAF Bericht).

Die verfügbaren Stationen werden durch gelbe und rote Markierungen auf der Karte dargestellt.

Führen Sie die Maus auf sie, um den Namen der Station zu sehen.

Darauf klicken, um die Beobachtung von Wetterbeobachtungen und Prognosen zu sehen.

Um die Karte zu ändern : klicken Sie auf den grünen Tasten mit einem schwarzen Kreuz Zum Vergrößern, auf den grünen Button mit einem Gedankenstrich zu verkleinern, oder auf die grünen Pfeile für benachbarte Karten.


METAR-TAF: